Lanai City, HI

6:15 AM HST on April 19, 2018 (GMT -1000)
Lanai City

Weather History for PHNY - February, 2013

Change the Weather History Date:

Sunday, February 10, 2013

  Actual Average Record
Temperature  
Mean Temperature 72 °F -  
Max Temperature 79 °F 75 °F 82 °F (2001)
Min Temperature 65 °F 57 °F 51 °F (1951)
Cooling Degree Days 7    
Growing Degree Days 22 (Base 50)    
Moisture  
Dew Point 62 °F    
Average Humidity 74    
Maximum Humidity 94    
Minimum Humidity 49    
Precipitation  
Precipitation 0.00 in - - ()
Sea Level Pressure  
Sea Level Pressure 30.13 in    
Wind  
Wind Speed 18 mph (NE)    
Max Wind Speed 25 mph    
Max Gust Speed 32 mph    
Visibility 10 miles    
Events Rain    
Averages and records for this station are not official NWS values.
T = Trace of Precipitation, MM = Missing Value Source: NWS Daily Summary

Daily Weather History Graph

Daily Weather History Graph

Search for Another Location

Airport or City:

Astronomy

Feb. 10, 2013 Rise Set
Actual Time 7:00 AM HST 6:24 PM HST
Civil Twilight 6:37 AM HST 6:46 PM HST
Nautical Twilight 6:11 AM HST 7:13 PM HST
Astronomical Twilight 5:45 AM HST 7:39 PM HST
Moon 7:08 AM HST (2/10) 7:11 PM HST (2/10)
Length of Visible Light 12h 09m
Length of Day
11h 23m
New Moon, 0% of the Moon is Illuminated
Feb 10
New Moon
Feb 17
First Quarter
Feb 25
Full
Mar 4
Last Quarter
Mar 11
New

Hourly Weather History & Observations

Time (HST) Temp. Dew Point Humidity Pressure Visibility Wind Dir Wind Speed Gust Speed Precip Events Conditions
12:56 AM 65.8 °F 59.9 °F 81% 30.10 in 10.0 mi NE 19.6 mph 26.5 mph N/A   Clear
1:56 AM 65.8 °F 59.9 °F 81% 30.09 in 10.0 mi NNE 24.2 mph 27.6 mph N/A   Clear
2:56 AM 65.8 °F 59.9 °F 81% 30.09 in 10.0 mi NE 19.6 mph - N/A   Clear
3:56 AM 65.8 °F 59.9 °F 81% 30.09 in 10.0 mi NE 18.4 mph 31.1 mph N/A   Clear
4:56 AM 65.8 °F 59.9 °F 81% 30.09 in 10.0 mi NE 20.7 mph 29.9 mph N/A   Clear
5:56 AM 65.8 °F 61.0 °F 84% 30.11 in 10.0 mi NE 24.2 mph 28.8 mph N/A   Clear
6:56 AM 65.8 °F 61.0 °F 84% 30.14 in 10.0 mi NE 24.2 mph 32.2 mph N/A   Clear
7:56 AM 68.0 °F 61.9 °F 81% 30.15 in 10.0 mi NE 25.3 mph - N/A   Clear
8:56 AM 70.9 °F 61.0 °F 71% 30.17 in 10.0 mi NE 18.4 mph 27.6 mph N/A   Clear
9:56 AM 73.9 °F 61.0 °F 64% 30.18 in 10.0 mi NE 11.5 mph - N/A   Clear
10:56 AM 75.9 °F 61.9 °F 62% 30.18 in 10.0 mi NE 15.0 mph - N/A   Clear
11:56 AM 79.9 °F 59.0 °F 49% 30.15 in 10.0 mi NNE 8.1 mph 17.3 mph N/A   Clear
12:56 PM 79.0 °F 63.0 °F 58% 30.12 in 10.0 mi NNE 17.3 mph 23.0 mph N/A   Clear
1:56 PM 77.0 °F 61.9 °F 59% 30.09 in 10.0 mi NE 18.4 mph 27.6 mph N/A   Clear
2:56 PM 73.9 °F 61.9 °F 66% 30.08 in 10.0 mi NE 19.6 mph 24.2 mph N/A   Scattered Clouds
3:56 PM 75.9 °F 63.0 °F 64% 30.06 in 10.0 mi NNE 15.0 mph - N/A   Partly Cloudy
4:19 PM 73.4 °F 62.6 °F 69% 30.12 in 10.0 mi NE 10.4 mph - N/A   Mostly Cloudy
4:44 PM 73.4 °F 62.6 °F 69% 30.12 in 10.0 mi NE 13.8 mph 20.7 mph N/A   Overcast
4:56 PM 72.9 °F 61.0 °F 66% 30.08 in 10.0 mi NE 12.7 mph - N/A   Mostly Cloudy
5:18 PM 73.4 °F 60.8 °F 65% 30.13 in 10.0 mi NE 15.0 mph 18.4 mph N/A   Mostly Cloudy
5:46 PM 71.6 °F 60.8 °F 69% 30.14 in 10.0 mi NNE 11.5 mph - N/A   Mostly Cloudy
5:56 PM 70.9 °F 61.0 °F 71% 30.10 in 10.0 mi Calm Calm - N/A   Scattered Clouds
6:56 PM 68.0 °F 61.9 °F 81% 30.11 in 10.0 mi NNE 11.5 mph - N/A   Clear
7:56 PM 68.0 °F 61.9 °F 81% 30.13 in 10.0 mi NNE 16.1 mph - N/A   Clear
8:56 PM 68.0 °F 63.0 °F 84% 30.15 in 10.0 mi NE 11.5 mph - N/A   Clear
9:56 PM 66.9 °F 61.9 °F 84% 30.17 in 10.0 mi NE 12.7 mph - N/A   Clear
10:44 PM 66.2 °F 64.4 °F 94% 30.23 in 5.0 mi NE 12.7 mph 18.4 mph 0.00 in Rain Light Rain
10:56 PM 66.2 °F 62.6 °F 88% 30.23 in 7.0 mi NE 17.3 mph - N/A Rain Light Rain
11:56 PM 65.8 °F 63.0 °F 90% 30.17 in 10.0 mi NNE 15.0 mph - 0.00 in   Mostly Cloudy